Weather History for KMSS - July, 2013

Change the Weather History Date:

Sunday, July 28, 2013

  Actual Average Record
Temperature  
Mean Temperature 69 °F 69 °F  
Max Temperature 76 °F 80 °F 95 °F (1949)
Min Temperature 62 °F 58 °F 42 °F (2001)
Degree Days  
Heating Degree Days 0 1  
Month to date heating degree days 28  
Since 1 June heating degree days 124  
Since 1 July heating degree days 28  
Cooling Degree Days 4 5  
Month to date cooling degree days 194 137  
Year to date cooling degree days 294 226  
Since 1 June cooling degree days 271 212  
Growing Degree Days 18 (Base 50)    
Moisture  
Dew Point 65 °F    
Average Humidity 87    
Maximum Humidity 100    
Minimum Humidity 74    
Precipitation  
Precipitation 0.24 in 0.12 in 1.08 in (1966)
Month to date precipitation 3.41 3.22  
Year to date precipitation 19.33 18.67  
Sea Level Pressure  
Sea Level Pressure 29.90 in    
Wind  
Wind Speed 5 mph (SSE)    
Max Wind Speed 14 mph    
Max Gust Speed 20 mph    
Visibility 9 miles    
Events Rain , Thunderstorm    
T = Trace of Precipitation, MM = Missing Value Source: NWS Daily Summary

Daily Weather History Graph

Daily Weather History Graph

Search for Another Location

Airport or City:

Trip Planner

Search our weather history database for the weather conditions in past years. The results will help you decide how hot, cold, wet, or windy it might be!

Date:

Astronomy

Jul. 28, 2013 Rise Set
Actual Time 5:40 AM EDT 8:30 PM EDT
Civil Twilight 5:06 AM EDT 9:04 PM EDT
Nautical Twilight 4:23 AM EDT 9:47 PM EDT
Astronomical Twilight 3:32 AM EDT 10:38 PM EDT
Moon 11:28 PM EDT (7/28) 12:41 PM EDT (7/28)
Length of Visible Light 15h 57m
Length of Day
14h 49m
Waning Gibbous, 61% of the Moon is Illuminated
Jul 28
Waning Gibbous
Jul 29
Last Quarter
Aug 6
New
Aug 14
First Quarter
Aug 20
Full

Hourly Weather History & Observations

Time (EDT) Temp. Dew Point Humidity Pressure Visibility Wind Dir Wind Speed Gust Speed Precip Events Conditions
12:53 AM 66.9 °F 64.0 °F 90% 29.92 in 10.0 mi Calm Calm - 0.04 in Rain Light Rain
1:53 AM 66.9 °F 64.9 °F 93% 29.90 in 9.0 mi East 3.5 mph - 0.00 in Rain Light Rain
2:53 AM 66.9 °F 64.9 °F 93% 29.88 in 10.0 mi East 4.6 mph - 0.02 in Rain Light Rain
3:53 AM 66.9 °F 64.0 °F 90% 29.87 in 10.0 mi East 5.8 mph - 0.01 in Rain Light Rain
4:53 AM 66.9 °F 64.0 °F 90% 29.88 in 10.0 mi East 3.5 mph - 0.00 in   Mostly Cloudy
5:53 AM 66.9 °F 64.0 °F 90% 29.89 in 10.0 mi ENE 3.5 mph - N/A   Mostly Cloudy
6:53 AM 66.9 °F 64.0 °F 90% 29.89 in 10.0 mi East 3.5 mph - 0.00 in   Overcast
7:53 AM 70.0 °F 64.9 °F 84% 29.89 in 10.0 mi ESE 4.6 mph - N/A   Mostly Cloudy
8:53 AM 73.9 °F 66.0 °F 76% 29.89 in 10.0 mi South 6.9 mph - N/A   Clear
9:53 AM 73.0 °F 66.0 °F 79% 29.88 in 10.0 mi SSW 4.6 mph - N/A   Overcast
10:53 AM 75.0 °F 66.9 °F 76% 29.89 in 10.0 mi South 3.5 mph - N/A   Overcast
11:44 AM 75.2 °F 66.2 °F 73% 29.89 in 10.0 mi South 8.1 mph - 0.00 in Rain , Thunderstorm Light Thunderstorms and Rain
11:53 AM 75.0 °F 66.9 °F 76% 29.88 in 10.0 mi South 5.8 mph - 0.00 in Rain Light Rain
12:53 PM 75.9 °F 68.0 °F 76% 29.88 in 10.0 mi WSW 5.8 mph - 0.01 in   Overcast
1:53 PM 73.0 °F 66.9 °F 81% 29.87 in 10.0 mi SW 3.5 mph - 0.00 in Rain Light Rain
2:16 PM 69.8 °F 66.2 °F 88% 29.89 in 10.0 mi WSW 13.8 mph 19.6 mph 0.03 in Thunderstorm Overcast
2:38 PM 69.8 °F 64.4 °F 83% 29.89 in 3.0 mi SW 8.1 mph - 0.06 in Rain Rain
2:53 PM 69.1 °F 64.9 °F 87% 29.90 in 6.0 mi SW 6.9 mph - 0.07 in Rain Light Rain
3:53 PM 68.0 °F 64.9 °F 90% 29.90 in 5.0 mi SE 3.5 mph - 0.05 in Rain Light Rain
4:53 PM 68.0 °F 64.9 °F 90% 29.90 in 9.0 mi SSE 6.9 mph - 0.07 in Rain Light Rain
5:36 PM 68.0 °F 64.4 °F 88% 29.90 in 10.0 mi South 4.6 mph - 0.00 in   Overcast
5:53 PM 69.1 °F 66.0 °F 90% 29.90 in 10.0 mi ESE 4.6 mph - 0.00 in   Overcast
6:28 PM 68.0 °F 66.2 °F 94% 29.90 in 10.0 mi SE 4.6 mph - N/A   Overcast
6:53 PM 68.0 °F 64.9 °F 90% 29.91 in 9.0 mi South 3.5 mph - N/A   Overcast
7:09 PM 68.0 °F 66.2 °F 94% 29.91 in 5.0 mi Calm Calm - 0.01 in Rain Light Rain
7:16 PM 68.0 °F 64.4 °F 88% 29.91 in 6.0 mi SE 5.8 mph - 0.01 in Rain Light Rain
7:53 PM 68.0 °F 66.0 °F 93% 29.92 in 8.0 mi SSE 4.6 mph - 0.01 in   Overcast
8:53 PM 66.0 °F 64.0 °F 93% 29.92 in 7.0 mi SSE 3.5 mph - N/A   Scattered Clouds
9:53 PM 63.0 °F 62.1 °F 97% 29.94 in 7.0 mi Calm Calm - N/A   Clear
10:53 PM 62.1 °F 61.0 °F 96% 29.94 in 8.0 mi SSW 4.6 mph - N/A   Partly Cloudy
11:53 PM 64.0 °F 62.1 °F 93% 29.95 in 10.0 mi South 4.6 mph - N/A   Overcast